{"data":{"norad_id":62216,"epoch":"2026-09-20T20:01:18.272064Z","epoch_age_seconds":281319,"freshness":"STALE","line1":"1 62216U 24230A   26263.83423926 -.00000056  00000+0  13735-4 0  9998","line2":"2 62216  67.1482 178.3709 0005406 266.4751  93.5715 13.96677509 91494","mean_motion":13.96677509,"eccentricity":0.0005406,"inclination_deg":67.1482,"raan_deg":178.3709,"arg_perigee_deg":266.4751,"mean_anomaly_deg":93.5715,"bstar":1.3735e-5,"rev_number":9149,"period_min":103.10182491812,"perigee_km":901.38570809691,"apogee_km":909.26058520746,"semimajor_km":7283.4601466522,"source":"CELESTRAK","updated_at":"2026-09-23T09:00:21.300698Z"}}